Météo par heure à Kyurovschina

Ce jour, 4 Août, Mercredi

Heure Température Précipitation Vent Pression Humidité
00:00 +11°C° 0 mm 3 m/s 751 mmHg 84%
01:00 +10°C° 0 mm 3 m/s 751 mmHg 86%
02:00 +10°C° 0 mm 3 m/s 752 mmHg 87%
03:00 +10°C° 0 mm 3 m/s 752 mmHg 88%
04:00 +10°C° 0 mm 3 m/s 752 mmHg 88%
05:00 +10°C° 0 mm 3 m/s 752 mmHg 88%
06:00 +12°C° 0 mm 3 m/s 753 mmHg 79%
07:00 +14°C° 0 mm 3 m/s 753 mmHg 70%
08:00 +17°C° 0 mm 3 m/s 753 mmHg 60%
09:00 +18°C° 0 mm 3 m/s 754 mmHg 55%
10:00 +18°C° 0 mm 3 m/s 754 mmHg 49%
11:00 +19°C° 0 mm 3 m/s 754 mmHg 44%
12:00 +20°C° 0 mm 3 m/s 754 mmHg 43%
13:00 +20°C° 0 mm 3 m/s 754 mmHg 42%
14:00 +20°C° 0 mm 3 m/s 754 mmHg 39%
15:00 +20°C° 0 mm 2 m/s 754 mmHg 43%
16:00 +19°C° 0 mm 2 m/s 754 mmHg 47%
17:00 +19°C° 0 mm 2 m/s 754 mmHg 51%
18:00 +17°C° 0 mm 2 m/s 754 mmHg 56%
19:00 +16°C° 0 mm 1 m/s 755 mmHg 62%
20:00 +14°C° 0 mm 1 m/s 755 mmHg 67%
21:00 +13°C° 0 mm 1 m/s 755 mmHg 70%
22:00 +12°C° 0 mm 1 m/s 755 mmHg 73%
23:00 +11°C° 0 mm 1 m/s 755 mmHg 75%

Demain, 5 Août, Jeudi

Heure Température Précipitation Vent Pression Humidité
00:00 +11°C° 0 mm 1 m/s 755 mmHg 77%
01:00 +11°C° 0 mm 1 m/s 755 mmHg 78%
02:00 +10°C° 0 mm 1 m/s 755 mmHg 79%
03:00 +10°C° 0 mm 1 m/s 755 mmHg 79%
04:00 +11°C° 0 mm 1 m/s 755 mmHg 78%
05:00 +11°C° 0 mm 1 m/s 755 mmHg 77%
06:00 +13°C° 0 mm 1 m/s 755 mmHg 70%
07:00 +15°C° 0 mm 1 m/s 756 mmHg 63%
08:00 +18°C° 0 mm 1 m/s 756 mmHg 55%
09:00 +19°C° 0 mm 1 m/s 755 mmHg 49%
10:00 +21°C° 0 mm 1 m/s 755 mmHg 43%
11:00 +22°C° 0 mm 1 m/s 755 mmHg 38%
12:00 +22°C° 0 mm 1 m/s 755 mmHg 38%
13:00 +21°C° 0 mm 2 m/s 755 mmHg 38%
14:00 +21°C° 0 mm 2 m/s 755 mmHg 38%
15:00 +20°C° 0 mm 2 m/s 755 mmHg 45%
16:00 +19°C° 0 mm 3 m/s 755 mmHg 52%
17:00 +18°C° 0 mm 3 m/s 755 mmHg 59%
18:00 +17°C° 0 mm 3 m/s 755 mmHg 63%
19:00 +16°C° 0 mm 2 m/s 755 mmHg 68%
20:00 +15°C° 0 mm 2 m/s 755 mmHg 72%
21:00 +14°C° 0 mm 2 m/s 755 mmHg 76%
22:00 +13°C° 0 mm 1 m/s 755 mmHg 80%
23:00 +13°C° 0 mm 1 m/s 755 mmHg 84%

Après-demain, 6 Août, Vendredi

Heure Température Précipitation Vent Pression Humidité
00:00 +12°C° 0 mm 2 m/s 755 mmHg 86%
01:00 +12°C° 0 mm 2 m/s 755 mmHg 88%
02:00 +10°C° 0 mm 2 m/s 755 mmHg 90%
03:00 +10°C° 0 mm 2 m/s 755 mmHg 90%
04:00 +10°C° 0 mm 2 m/s 755 mmHg 91%
05:00 +10°C° 0 mm 3 m/s 754 mmHg 91%
06:00 +12°C° 0 mm 3 m/s 754 mmHg 81%
07:00 +14°C° 0 mm 4 m/s 754 mmHg 71%
08:00 +17°C° 0 mm 4 m/s 754 mmHg 61%
09:00 +17°C° 0 mm 5 m/s 754 mmHg 56%
10:00 +20°C° 0 mm 5 m/s 754 mmHg 50%
11:00 +21°C° 0 mm 5 m/s 754 mmHg 45%
12:00 +21°C° 0 mm 5 m/s 753 mmHg 44%
13:00 +21°C° 0 mm 5 m/s 753 mmHg 44%
14:00 +21°C° 0 mm 5 m/s 753 mmHg 44%
15:00 +21°C° 0 mm 5 m/s 752 mmHg 46%
16:00 +21°C° 0 mm 6 m/s 752 mmHg 48%
17:00 +20°C° 0 mm 6 m/s 752 mmHg 50%
18:00 +19°C° 0 mm 6 m/s 752 mmHg 56%
19:00 +16°C° 0 mm 6 m/s 752 mmHg 62%
20:00 +15°C° 0 mm 6 m/s 752 mmHg 68%
21:00 +14°C° 0 mm 6 m/s 752 mmHg 70%
22:00 +14°C° 0 mm 6 m/s 751 mmHg 72%
23:00 +13°C° 0 mm 6 m/s 751 mmHg 74%

7 Août, Samedi

Heure Température Précipitation Vent Pression Humidité
00:00 +13°C° 0.1 mm 5 m/s 751 mmHg 77%
01:00 +13°C° 0.1 mm 5 m/s 750 mmHg 80%
02:00 +12°C° 0.1 mm 5 m/s 750 mmHg 84%
03:00 +11°C° 0.5 mm 6 m/s 749 mmHg 88%
04:00 +11°C° 0.5 mm 6 m/s 749 mmHg 92%
05:00 +11°C° 0.5 mm 6 m/s 749 mmHg 96%
06:00 +11°C° 0.9 mm 6 m/s 748 mmHg 97%
07:00 +13°C° 0.9 mm 6 m/s 748 mmHg 97%
08:00 +13°C° 0.9 mm 5 m/s 748 mmHg 98%
09:00 +14°C° 0.4 mm 5 m/s 748 mmHg 98%
10:00 +14°C° 0.4 mm 5 m/s 748 mmHg 98%
11:00 +14°C° 0.4 mm 5 m/s 748 mmHg 98%
12:00 +15°C° 0.2 mm 5 m/s 748 mmHg 98%
13:00 +15°C° 0.2 mm 4 m/s 748 mmHg 98%
14:00 +17°C° 0.2 mm 4 m/s 748 mmHg 98%
15:00 +17°C° 0.1 mm 4 m/s 748 mmHg 97%
16:00 +18°C° 0.1 mm 3 m/s 748 mmHg 96%
17:00 +18°C° 0.1 mm 3 m/s 748 mmHg 95%
18:00 +18°C° 0.2 mm 3 m/s 748 mmHg 95%
19:00 +17°C° 0.2 mm 2 m/s 748 mmHg 95%
20:00 +17°C° 0.2 mm 2 m/s 748 mmHg 95%
21:00 +16°C° 0 mm 2 m/s 748 mmHg 95%
22:00 +16°C° 0 mm 2 m/s 748 mmHg 95%
23:00 +15°C° 0 mm 2 m/s 749 mmHg 95%

8 Août, Dimanche

Heure Température Précipitation Vent Pression Humidité
00:00 +15°C° 0 mm 2 m/s 749 mmHg 95%
01:00 +14°C° 0 mm 1 m/s 749 mmHg 95%
02:00 +14°C° 0 mm 1 m/s 749 mmHg 95%
03:00 +14°C° 0 mm 1 m/s 749 mmHg 96%
04:00 +14°C° 0 mm 1 m/s 749 mmHg 96%
05:00 +14°C° 0 mm 1 m/s 749 mmHg 96%
06:00 +15°C° 0 mm 1 m/s 749 mmHg 94%
07:00 +16°C° 0 mm 1 m/s 750 mmHg 92%
08:00 +18°C° 0 mm 1 m/s 750 mmHg 90%
09:00 +19°C° 0.1 mm 1 m/s 750 mmHg 82%
10:00 +20°C° 0.1 mm 1 m/s 750 mmHg 75%
11:00 +22°C° 0.1 mm 1 m/s 750 mmHg 67%
12:00 +22°C° 0.1 mm 1 m/s 751 mmHg 66%
13:00 +21°C° 0.1 mm 2 m/s 751 mmHg 65%
14:00 +23°C° 0.1 mm 2 m/s 751 mmHg 64%
15:00 +23°C° 0 mm 2 m/s 751 mmHg 62%
16:00 +23°C° 0 mm 2 m/s 752 mmHg 59%
17:00 +24°C° 0 mm 2 m/s 752 mmHg 56%
18:00 +21°C° 0 mm 2 m/s 752 mmHg 66%
19:00 +20°C° 0 mm 1 m/s 752 mmHg 75%
20:00 +18°C° 0 mm 1 m/s 752 mmHg 85%
21:00 +18°C° 0 mm 1 m/s 753 mmHg 87%
22:00 +16°C° 0 mm 1 m/s 753 mmHg 90%
23:00 +16°C° 0 mm 1 m/s 753 mmHg 93%

9 Août, Lundi

Heure Température Précipitation Vent Pression Humidité
00:00 +16°C° 0 mm 1 m/s 753 mmHg 94%
01:00 +15°C° 0 mm 2 m/s 753 mmHg 95%
02:00 +15°C° 0 mm 2 m/s 753 mmHg 96%
03:00 +15°C° 0 mm 2 m/s 753 mmHg 95%
04:00 +16°C° 0 mm 2 m/s 753 mmHg 93%
05:00 +16°C° 0 mm 2 m/s 753 mmHg 92%
06:00 +17°C° 0 mm 2 m/s 753 mmHg 85%
07:00 +19°C° 0 mm 2 m/s 753 mmHg 78%
08:00 +20°C° 0 mm 3 m/s 753 mmHg 71%
09:00 +21°C° 0 mm 3 m/s 753 mmHg 67%
10:00 +24°C° 0 mm 3 m/s 753 mmHg 63%
11:00 +25°C° 0 mm 3 m/s 753 mmHg 59%
12:00 +24°C° 0.4 mm 2 m/s 753 mmHg 68%
13:00 +23°C° 0.4 mm 2 m/s 753 mmHg 76%
14:00 +22°C° 0.4 mm 1 m/s 753 mmHg 85%
15:00 +21°C° 1.3 mm 2 m/s 752 mmHg 88%
16:00 +20°C° 1.3 mm 2 m/s 752 mmHg 91%
17:00 +19°C° 1.3 mm 2 m/s 752 mmHg 95%
18:00 +19°C° 1.7 mm 2 m/s 752 mmHg 95%
19:00 +19°C° 1.7 mm 2 m/s 752 mmHg 96%
20:00 +18°C° 1.7 mm 2 m/s 752 mmHg 96%
21:00 +18°C° 0.3 mm 3 m/s 752 mmHg 96%
22:00 +17°C° 0.3 mm 3 m/s 752 mmHg 96%
23:00 +17°C° 0.3 mm 3 m/s 752 mmHg 97%
Voir plus

Nous avons besoin de votre consentement

Meteoprog et ses fournisseurs de services peuvent stocker et accéder à des données personnelles telles que des cookies, des identifiants d'appareils ou d'autres technologies similaires sur votre appareil et traiter ces données pour personnaliser le contenu et les publicités, ainsi que pour fournir des fonctionnalités de médias sociaux et analyser le trafic.

  • Stocker et/ou accéder à des informations sur votre appareil

    Des cookies, des identifiants d'appareils ou d'autres informations peuvent être stockés ou accessibles sur votre appareil aux fins indiquées ci-dessus.

  • Annonces et contenus personnalisés, mesure des annonces et des contenus, connaissance de l'audience et développement de produits

    Les annonces et le contenu peuvent être personnalisés en fonction d'un profil. D'autres données peuvent être ajoutées pour mieux personnaliser les annonces et le contenu. Les performances des publicités et du contenu peuvent être mesurées. Il est possible d'obtenir des informations sur le public qui a vu les publicités et le contenu. Ces données peuvent être utilisées pour développer ou améliorer l'expérience de l'utilisateur, les systèmes et les logiciels.

En cliquant sur "J'accepte", vous autorisez l'utilisation de cookies, des identifiants d'appareils, des balises web ou d'autres technologies similaires. Vos paramètres peuvent être modifiés dans le navigateur de votre appareil.

Dans certains cas, des intérêts légitimes peuvent être invoqués plutôt qu'un consentement. Vous pouvez en savoir plus à ce sujet dans notre Politique de confidentialité et de cookies.